Northolt, United Kingdom

6:24 PM BST on September 25, 2016 (GMT +0100)
Northolt Air Base

Weather History for EGWU - March, 2013

Change the Weather History Date:

Tuesday, March 5, 2013

  Actual Average Record
Temperature  
Mean Temperature 46 °F -  
Max Temperature 62 °F 48 °F 62 °F (2013)
Min Temperature 30 °F 37 °F 21 °F (2001)
Degree Days  
Heating Degree Days 19    
Moisture  
Dew Point 35 °F    
Average Humidity 70    
Maximum Humidity 100    
Minimum Humidity 30    
Precipitation  
Precipitation 0.00 in - - ()
Sea Level Pressure  
Sea Level Pressure 29.64 in    
Wind  
Wind Speed 3 mph ()    
Max Wind Speed 8 mph    
Max Gust Speed -    
Visibility 6.1 miles    
Events      
Averages and records for this station are not official NWS values.
T = Trace of Precipitation, MM = Missing Value Source: Averaged Metar Reports

Daily Weather History Graph

Daily Weather History Graph

Search for Another Location

Airport or City:

Trip Planner

Search our weather history database for the weather conditions in past years. The results will help you decide how hot, cold, wet, or windy it might be!

Date:

Astronomy

Mar. 05, 2013 Rise Set
Actual Time 6:37 AM GMT 5:49 PM GMT
Civil Twilight 6:04 AM GMT 6:22 PM GMT
Nautical Twilight 5:26 AM GMT 7:01 PM GMT
Astronomical Twilight 4:46 AM GMT 7:40 PM GMT
Moon 2:06 AM GMT (3/5) 10:41 AM GMT (3/5)
Length of Visible Light 12h 17m
Length of Day
11h 11m
Last Quarter, 43% of the Moon is Illuminated
Mar 5
Last Quarter
Mar 11
New
Mar 19
First Quarter
Mar 27
Full
Apr 3
Last Quarter

Hourly Weather History & Observations

Time (GMT) Temp. Windchill Dew Point Humidity Pressure Visibility Wind Dir Wind Speed Gust Speed Precip Events Conditions
12:50 AM 32.0 °F - 30.2 °F 93% 29.74 in 3.1 mi NE 1.2 mph - N/A   Unknown
1:50 AM 30.2 °F 26.7 °F 28.4 °F 93% 29.71 in 2.5 mi ENE 3.5 mph - N/A   Unknown
2:50 AM 30 °F - 29 °F 95% 29.72 in 2 mi NE 2.3 mph - -  
2:50 AM 30.2 °F - 28.4 °F 93% 29.71 in - NE 2.3 mph - N/A   Unknown
3:50 AM 30.2 °F - 28.4 °F 93% 29.68 in - NNW 1.2 mph - N/A   Unknown
4:50 AM 30.2 °F - 28.4 °F 93% 29.68 in - NW 2.3 mph - N/A   Unknown
5:50 AM 30 °F - 29 °F 93% 29.70 in 2 mi NE 1.2 mph - -   Mist
5:50 AM 30.2 °F - 28.4 °F 93% 29.68 in 1.9 mi NE 1.2 mph - N/A   Clear
6:50 AM 30.2 °F - 28.4 °F 93% 29.68 in - NNE 1.2 mph - N/A   Partly Cloudy
7:50 AM 32.0 °F 28.7 °F 32.0 °F 100% 29.68 in - NW 3.5 mph - N/A   Partly Cloudy
8:50 AM 38 °F - 35 °F 87% 29.70 in 3 mi NE 1.2 mph - -   Haze
8:50 AM 37.4 °F - 35.6 °F 93% 29.68 in 2.8 mi NE 1.2 mph - N/A   Haze
9:50 AM 46.4 °F 45.2 °F 37.4 °F 71% 29.68 in 3.1 mi South 3.5 mph - N/A   Haze
10:50 AM 51.8 °F - 39.2 °F 62% 29.68 in 4.3 mi SSW 2.3 mph - N/A   Haze
11:50 AM 55 °F - 38 °F 40% 29.67 in 6 mi SSW 6.9 mph - -   Clear
11:50 AM 55.4 °F - 37.4 °F 51% 29.65 in - SSW 6.9 mph - N/A   Clear
12:50 PM 59.0 °F - 39.2 °F 48% 29.62 in - SSW 4.6 mph - N/A   Clear
1:50 PM 60.8 °F - 39.2 °F 45% 29.62 in - SSE 4.6 mph - N/A   Clear
2:50 PM 61 °F - 37 °F 30% 29.61 in 19 mi SSE 8.1 mph - -   Scattered Clouds
2:50 PM 60.8 °F - 37.4 °F 42% 29.59 in - SSE 8.1 mph - N/A   Clear
3:50 PM 60.8 °F - 39.2 °F 45% 29.59 in 6.2 mi SSE 8.1 mph - N/A   Partly Cloudy
4:50 PM 57.2 °F - 39.2 °F 51% 29.59 in 6.2 mi South 6.9 mph - N/A   Partly Cloudy
5:50 PM 54 °F - 38 °F 44% 29.60 in 19 mi SSE 5.8 mph - -   Scattered Clouds
5:50 PM 55.4 °F - 39.2 °F 54% 29.59 in - SSE 5.8 mph - N/A   Clear
6:50 PM 51.8 °F - 39.2 °F 62% 29.59 in - SE 3.5 mph - N/A   Clear
7:50 PM 50.0 °F - 39.2 °F 66% 29.59 in - SE 6.9 mph - N/A   Clear
8:50 PM 48 °F - 38 °F 60% 29.62 in 9 mi ESE 4.6 mph - -   Partly Cloudy
8:50 PM 48.2 °F - 39.2 °F 71% 29.59 in - ESE 4.6 mph - N/A   Clear
9:50 PM 46.4 °F 44.3 °F 37.4 °F 71% 29.59 in - ENE 4.6 mph - N/A   Clear
10:50 PM 44.6 °F 43.1 °F 35.6 °F 71% 29.59 in - ENE 3.5 mph - N/A   Clear
11:50 PM 45 °F - 37 °F 66% 29.60 in 8 mi East 4.6 mph - -   Scattered Clouds
11:50 PM 44.6 °F 42.2 °F 37.4 °F 76% 29.59 in - East 4.6 mph - N/A   Clear